User: anonymous   Login
Location: Unspecified
(0.0000°N, 0.0000°E)
Time: 08:36:56
(UTC+00:00)
Language:

Tsikada - Orbit

View from above orbital plane
View from above orbital plane
View from above satellite
View from above satellite

Ground track
Ground track

The orbit data is extracted from the following two-line orbital elements,

1 23463U 95002A   18267.60402632 +.00000048 +00000-0 +35214-4 0  9992
2 23463 082.9254 302.7846 0040066 059.5893 098.0711 13.72489114185522
Epoch (UTC): 24 September 2018 14:29:47
Eccentricity: 0.0040066
inclination: 82.9254°
perigee height: 961 km
apogee height: 1020 km
right ascension of ascending node: 302.7846°
argument of perigee: 59.5893°
revolutions per day: 13.72489114
mean anomaly at epoch: 98.0711°
orbit number at epoch: 18552

The dashed part of the orbit path shows where the satellite is in the earth's shadow,  

DLR